Meadville, PA

4:36 PM EDT on April 20, 2018 (GMT -0400)
Port Meadville

Weather History for KGKJ - May, 2013

Change the Weather History Date:

Sunday, May 12, 2013

  Actual Average Record
Temperature  
Mean Temperature 40 °F -  
Max Temperature 48 °F 69 °F 87 °F (1979)
Min Temperature 34 °F 41 °F 30 °F (1983)
Degree Days  
Heating Degree Days 25    
Moisture  
Dew Point 33 °F    
Average Humidity 76    
Maximum Humidity 93    
Minimum Humidity 48    
Precipitation  
Precipitation 0.03 in - - ()
Sea Level Pressure  
Sea Level Pressure 29.91 in    
Wind  
Wind Speed 12 mph (West)    
Max Wind Speed 17 mph    
Max Gust Speed 31 mph    
Visibility 10 miles    
Events Rain    
Averages and records for this station are not official NWS values.
T = Trace of Precipitation, MM = Missing Value Source: NWS Daily Summary

Daily Weather History Graph

Daily Weather History Graph

Search for Another Location

Airport or City:

Astronomy

May. 12, 2013 Rise Set
Actual Time 6:04 AM EDT 8:30 PM EDT
Civil Twilight 5:32 AM EDT 9:02 PM EDT
Nautical Twilight 4:53 AM EDT 9:41 PM EDT
Astronomical Twilight 4:10 AM EDT 10:25 PM EDT
Moon 7:57 AM EDT (5/12) 10:57 PM EDT (5/12)
Length of Visible Light 15h 29m
Length of Day
14h 26m
Waxing Crescent, 6% of the Moon is Illuminated
May 12
Waxing Crescent
May 18
First Quarter
May 25
Full
May 31
Last Quarter
Jun 8
New

Hourly Weather History & Observations

Time (EDT) Temp. Windchill Dew Point Humidity Pressure Visibility Wind Dir Wind Speed Gust Speed Precip Events Conditions
12:10 AM 46.4 °F 40.1 °F 42.8 °F 87% 29.81 in 10.0 mi WNW 15.0 mph 27.6 mph 0.00 in Rain Light Rain
12:17 AM 44.6 °F 38.1 °F 42.8 °F 93% 29.82 in 10.0 mi WNW 13.8 mph 31.1 mph 0.00 in Rain Light Rain
12:36 AM 44.6 °F 38.1 °F 41.0 °F 87% 29.83 in 6.0 mi WNW 13.8 mph 23.0 mph 0.00 in Rain Light Rain
12:53 AM 43.0 °F 36.8 °F 39.0 °F 86% 29.86 in 9.0 mi WNW 11.5 mph 28.8 mph 0.01 in Rain Light Rain
1:02 AM 42.8 °F 35.1 °F 39.2 °F 87% 29.84 in 7.0 mi WNW 16.1 mph 24.2 mph 0.00 in Rain Light Rain
1:23 AM 41.0 °F 35.2 °F 37.4 °F 87% 29.85 in 10.0 mi NW 9.2 mph 17.3 mph 0.00 in   Overcast
1:39 AM 39.2 °F 32.5 °F 35.6 °F 87% 29.86 in 10.0 mi WNW 10.4 mph 17.3 mph 0.00 in   Overcast
1:53 AM 39.9 °F 35.1 °F 36.0 °F 86% 29.88 in 10.0 mi NW 6.9 mph 17.3 mph 0.00 in   Overcast
2:26 AM 39.2 °F 32.5 °F 33.8 °F 81% 29.85 in 10.0 mi NW 10.4 mph 17.3 mph N/A   Overcast
2:53 AM 37.9 °F 33.5 °F 34.0 °F 86% 29.88 in 10.0 mi WNW 5.8 mph - N/A   Overcast
3:53 AM 36.0 °F 31.1 °F 32.0 °F 86% 29.89 in 10.0 mi West 5.8 mph - N/A   Scattered Clouds
4:53 AM 35.1 °F 30.1 °F 32.0 °F 89% 29.88 in 10.0 mi WSW 5.8 mph - N/A   Clear
5:53 AM 34.0 °F 29.8 °F 32.0 °F 92% 29.88 in 10.0 mi SSW 4.6 mph - N/A   Partly Cloudy
6:53 AM 35.1 °F 27.9 °F 32.0 °F 89% 29.88 in 10.0 mi SW 9.2 mph - 0.00 in   Overcast
7:28 AM 37.4 °F 32.1 °F 33.8 °F 87% 29.87 in 10.0 mi SW 6.9 mph 17.3 mph 0.00 in   Mostly Cloudy
7:53 AM 37.9 °F 32.7 °F 34.0 °F 86% 29.88 in 10.0 mi SSW 6.9 mph - 0.00 in   Scattered Clouds
8:34 AM 39.2 °F 33.0 °F 33.8 °F 81% 29.88 in 10.0 mi SW 9.2 mph - N/A   Mostly Cloudy
8:53 AM 39.9 °F 33.9 °F 35.1 °F 83% 29.89 in 10.0 mi WSW 9.2 mph 17.3 mph N/A   Overcast
9:22 AM 41.0 °F 33.5 °F 35.6 °F 81% 29.87 in 10.0 mi WSW 13.8 mph 18.4 mph N/A   Overcast
9:53 AM 39.9 °F 31.4 °F 33.1 °F 77% 29.89 in 10.0 mi WSW 16.1 mph 25.3 mph 0.00 in Rain Light Rain
10:23 AM 37.4 °F 29.3 °F 35.6 °F 93% 29.88 in 10.0 mi WSW 12.7 mph 23.0 mph 0.01 in   Overcast
10:32 AM 39.2 °F 32.5 °F 35.6 °F 87% 29.88 in 10.0 mi WSW 10.4 mph 21.9 mph 0.01 in Rain Light Rain
10:53 AM 39.9 °F 31.1 °F 33.1 °F 77% 29.91 in 10.0 mi WSW 17.3 mph 27.6 mph 0.01 in   Overcast
11:18 AM 41.0 °F 32.5 °F 35.6 °F 81% 29.89 in 10.0 mi West 17.3 mph - N/A   Mostly Cloudy
11:40 AM 42.8 °F 37.0 °F 35.6 °F 76% 29.89 in 10.0 mi West 10.4 mph 20.7 mph N/A   Overcast
11:53 AM 41.0 °F 35.2 °F 34.0 °F 76% 29.91 in 10.0 mi WSW 9.2 mph - N/A   Overcast
12:32 PM 42.8 °F 37.5 °F 30.2 °F 61% 29.89 in 10.0 mi WNW 9.2 mph 23.0 mph 0.00 in   Overcast
12:53 PM 43.0 °F 35.7 °F 30.0 °F 60% 29.92 in 10.0 mi West 15.0 mph 24.2 mph 0.00 in   Overcast
1:53 PM 46.0 °F 40.2 °F 32.0 °F 58% 29.93 in 10.0 mi West 12.7 mph 19.6 mph N/A   Mostly Cloudy
2:53 PM 46.9 °F - 28.9 °F 50% 29.93 in 10.0 mi West 12.7 mph 27.6 mph 0.01 in   Mostly Cloudy
3:53 PM 45.0 °F 37.9 °F 30.9 °F 58% 29.94 in 10.0 mi West 16.1 mph 26.5 mph 0.00 in   Mostly Cloudy
4:53 PM 46.0 °F 40.2 °F 32.0 °F 58% 29.96 in 10.0 mi West 12.7 mph 21.9 mph 0.00 in   Overcast
5:53 PM 45.0 °F 38.2 °F 26.1 °F 48% 29.96 in 10.0 mi West 15.0 mph 26.5 mph N/A   Mostly Cloudy
6:53 PM 45.0 °F 38.2 °F 26.1 °F 48% 29.97 in 10.0 mi West 15.0 mph 28.8 mph N/A   Mostly Cloudy
7:53 PM 44.1 °F 36.8 °F 28.0 °F 53% 29.98 in 10.0 mi West 16.1 mph 21.9 mph N/A   Overcast
8:53 PM 42.1 °F 34.2 °F 30.0 °F 62% 30.00 in 10.0 mi West 16.1 mph 20.7 mph 0.00 in Rain Light Rain
9:53 PM 39.9 °F 33.4 °F 32.0 °F 73% 30.04 in 10.0 mi WNW 10.4 mph 18.4 mph 0.00 in Rain Light Rain
10:08 PM 39.2 °F 32.0 °F 30.2 °F 70% 30.02 in 10.0 mi WNW 11.5 mph 18.4 mph 0.00 in Rain Light Rain
10:19 PM 39.2 °F 33.6 °F 30.2 °F 70% 30.02 in 10.0 mi NW 8.1 mph - 0.00 in   Mostly Cloudy
10:53 PM 39.0 °F 34.0 °F 28.0 °F 65% 30.06 in 10.0 mi WNW 6.9 mph - 0.00 in   Overcast
11:53 PM 37.0 °F 32.4 °F 26.1 °F 65% 30.06 in 10.0 mi WNW 5.8 mph - N/A   Scattered Clouds